カタログに戻る

IPM 2/BREEZE-M

運用中科学GEO
NORAD 47242·PAYLOAD·🇷🇺 Russia

打ち上げ Dec 14, 2020 から Plesetsk Cosmodrome

Loading…

TLE

最新Source: Space-Track

元期: Sep 13, 2026, 15:07 UTC

1 47242U 20097A   26256.62995771 -.00000096  00000-0  00000-0 0  9990
2 47242   5.5933  75.6017 0083365 282.1180  77.2099  0.95297799 20114

AllMySatでIPM 2/BREEZE-Mをリアルタイム追跡

Download on the App Store